Temperature
17 17 17 17 17 17 17 17 17 18 18 18 17 17 16 16 17 16 17 17 17 17 17 16 16 16 16 16 16 16 16 15 15 15 15 15 15 15
17 17 17 17 17 17 17 17 17 17 17 17 17 17 16 16 16 16 16 16 16 16 16 16 16 16 16 16 16 15 15 15 15 15 15 15 15 15
17 17 17 17 17 17 17 17 17 17 17 17 17 16 16 16 16 16 16 16 16 16 16 16 16 16 16 16 15 15 15 15 15 15 15 15 15 15
17 17 17 17 16 17 17 17 16 16 16 17 16 16 16 16 16 16 15 15 15 16 16 16 16 16 16 15 15 15 15 15 15 15 15 15 15 14
17 16 16 16 16 16 16 16 16 16 16 16 16 16 16 16 16 15 15 15 15 15 15 15 16 15 15 15 15 15 15 15 15 15 15 14 14 14
17 16 16 16 16 16 16 16 16 16 16 16 16 16 16 16 15 15 15 15 15 15 15 15 15 15 15 15 15 15 15 15 14 14 14 14 14 14
16 16 16 16 16 16 16 16 16 16 16 16 16 16 16 15 15 15 15 15 15 15 15 15 15 15 15 15 15 15 15 14 14 14 14 14 14 14
16 16 16 16 16 16 16 16 16 16 16 16 16 16 15 15 15 15 15 15 15 15 15 15 15 15 15 15 15 15 14 14 14 14 14 14 13 13
16 16 16 16 16 16 16 16 16 16 16 16 15 15 15 15 15 15 15 15 15 15 15 15 15 14 14 14 15 15 14 14 14 14 14 13 13 13
16 15 15 15 15 15 15 15 15 15 15 15 15 15 15 15 15 15 15 14 14 14 15 14 15 14 14 14 14 14 14 14 14 14 13 13 13 13
15 15 15 15 15 15 15 15 15 15 15 15 15 15 15 15 15 15 14 14 14 14 14 14 14 14 14 14 14 14 14 14 13 13 13 13 13 13
15 15 15 15 15 15 15 14 14 14 14 14 14 15 15 15 15 14 14 14 14 14 14 14 14 14 14 14 13 13 13 13 13 13 13 13 12 12
15 15 15 15 15 14 14 14 14 14 14 14 14 14 14 14 14 14 14 14 14 14 14 14 13 13 13 13 13 13 13 13 13 12 12 12 12 12
14 14 14 14 14 14 14 14 14 14 13 13 13 14 14 14 14 13 14 14 14 14 14 14 13 13 13 13 13 13 12 12 12 12 12 12 12 12
14 14 14 14 14 13 13 13 13 13 13 13 13 13 13 13 13 13 13 13 13 13 13 13 13 13 12 13 13 12 12 12 12 12 12 12 12 11
13 13 13 13 13 13 13 13 13 13 13 13 13 13 13 13 13 13 13 13 13 13 13 13 13 12 12 12 12 12 12 12 11 11 11 11 11 11
13 13 12 12 12 12 12 12 12 12 12 12 12 13 13 13 12 13 12 12 12 12 12 12 12 12 12 12 11 11 11 11 11 11 11 11 11 11
12 12 12 12 12 12 12 12 12 12 12 12 12 12 12 12 12 12 12 12 12 12 12 12 11 11 11 11 11 11 11 11 11 11 10 10 10 11
12 12 12 12 12 12 12 11 11 11 11 11 11 11 11 11 11 11 11 11 11 11 11 11 11 11 11 11 11 11 11 10 10 10 10 10 10 10
11 11 11 11 11 11 11 11 11 11 11 11 11 11 11 11 11 11 11 11 11 11 11 11 11 10 10 10 10 10 10 10 10 10 10 10 10 10
11 11 11 11 11 10 10 10 10 10 10 10 10 10 10 10 10 10 10 10 10 10 10 10 10 10 10 10 10 10 10 10 10 9 9 9 9 9
10 10 10 10 10 10 10 10 9 9 10 9 9 9 9 9 10 10 10 10 10 10 10 10 10 9 9 9 9 9 9 9 9 9 9 9 9 9
10 10 10 10 9 9 9 9 9 9 9 9 9 9 9 9 9 9 9 9 9 9 9 9 9 9 9 9 9 9 9 9 8 8 8 8 8 8
Wind_Speed
7 7 7 6 5 5 5 5 6 6 5 3 3 3 2 3 2 4 4 4 6 6 6 7 6 6 5 5 5 5 4 4 4 4 4 5 5 5
6 6 7 7 5 6 5 5 6 6 6 3 3 3 2 3 3 4 4 5 7 7 7 7 7 7 7 7 6 6 6 6 5 5 5 5 5 5
8 8 8 7 6 6 5 6 6 6 6 5 4 3 4 5 3 4 5 5 5 8 8 8 8 8 8 8 7 7 7 7 6 6 6 5 6 6
8 8 8 7 7 7 6 6 6 6 7 7 5 4 5 5 5 5 5 5 5 8 10 9 9 9 9 9 9 8 8 8 7 7 6 6 6 6
8 9 9 8 8 6 7 7 6 6 6 7 6 4 5 5 5 6 6 5 6 6 10 11 10 10 11 11 10 10 9 9 8 8 7 7 7 6
8 9 9 9 8 8 8 8 7 7 7 7 7 6 5 5 5 5 5 5 6 5 6 7 9 12 12 12 12 11 11 10 9 9 8 8 8 7
8 8 8 7 7 7 7 7 7 7 7 7 7 6 6 5 6 6 6 5 5 5 5 6 7 8 9 12 13 12 12 11 11 10 10 9 9 9
8 8 8 8 8 8 8 8 7 8 8 7 7 7 7 7 6 7 6 6 5 5 6 6 6 6 6 8 11 13 13 12 12 12 11 11 10 10
8 7 8 7 8 8 8 9 8 8 9 9 9 8 7 6 6 8 7 8 7 5 6 7 6 6 6 6 11 14 15 14 14 13 13 12 12 12
8 8 8 7 6 6 7 8 9 9 9 9 8 8 7 5 7 9 9 9 8 7 6 7 5 5 5 5 11 14 15 15 15 14 14 13 13 12
8 8 7 7 5 5 8 8 9 8 8 8 8 8 7 7 7 7 7 7 7 6 6 6 5 5 5 5 7 14 15 16 16 16 15 15 14 12
7 7 8 7 6 6 8 8 9 8 8 8 8 10 10 10 11 10 9 8 7 6 5 5 5 4 4 5 5 7 10 13 15 16 16 15 15 11
7 7 6 7 6 7 9 8 7 7 8 9 8 8 8 8 9 9 9 9 9 7 5 5 5 5 5 4 4 5 5 5 8 10 14 15 15 12
7 6 4 6 6 7 7 6 7 8 8 8 8 8 7 8 7 8 9 10 10 9 6 6 5 5 5 6 5 4 5 6 6 6 8 12 14 15
6 3 3 5 7 8 9 10 9 8 7 8 8 8 7 7 7 7 8 8 9 9 8 8 7 6 6 6 6 5 5 5 6 6 6 6 7 8
6 5 6 8 8 7 7 8 7 7 7 7 7 7 6 6 6 6 6 6 6 6 6 8 8 7 7 7 6 6 5 5 5 5 5 5 6 7
5 6 6 5 5 5 5 5 5 5 6 7 7 7 6 6 6 6 5 6 6 6 5 5 5 5 6 5 6 6 5 5 4 5 5 6 5 6
6 7 6 5 5 5 5 5 5 5 5 5 6 6 6 6 6 5 5 6 6 6 5 5 4 4 4 5 5 6 6 5 4 5 5 5 5 5
6 6 5 5 5 5 5 5 5 4 4 5 5 5 5 6 5 5 5 5 6 6 5 5 5 5 6 6 5 6 6 5 4 5 5 5 6 5
6 5 5 4 4 4 5 5 4 4 4 5 5 5 5 5 5 5 5 5 5 5 5 4 5 5 6 6 5 4 6 6 5 5 5 4 4 2
5 4 4 4 4 4 5 4 4 5 4 5 5 5 5 5 5 5 5 5 6 6 5 5 3 4 4 3 4 4 3 4 3 4 4 4 4 4
5 4 4 4 4 4 4 4 5 5 5 5 5 5 5 5 5 6 5 5 5 6 6 5 3 3 4 5 5 4 3 2 2 3 4 4 4 5
4 4 4 4 3 3 3 4 5 4 4 4 5 5 5 5 5 5 5 5 5 5 6 5 4 4 5 5 5 4 4 4 3 3 3 3 4 5
Wind_Direction
238 236 243 248 243 246 245 248 260 272 269 236 245 236 247 253 195 237 243 196 209 214 212 208 210 213 215 214 212 212 210 209 217 222 222 218 210 202
240 245 243 247 239 237 238 241 247 261 273 265 253 260 271 263 216 244 245 193 206 206 207 210 214 216 214 211 207 206 205 206 210 215 209 203 200 196
237 236 238 248 249 244 239 240 244 247 257 267 259 243 240 257 244 248 242 238 214 194 206 215 217 216 214 213 211 209 209 209 210 208 204 200 194 192
237 240 242 238 238 244 244 241 242 243 249 259 266 255 245 245 248 251 248 246 243 195 200 211 214 213 214 216 214 211 209 209 210 207 205 200 195 191
238 240 239 239 239 238 240 243 242 240 239 249 253 248 247 239 242 248 252 252 250 209 200 206 209 212 217 218 215 212 210 210 210 210 208 206 202 200
239 240 240 239 240 240 237 239 244 246 239 244 250 245 243 236 239 245 248 240 247 235 212 213 210 211 215 215 215 213 211 209 209 209 209 209 206 205
240 241 240 238 245 246 250 245 243 246 245 244 247 249 245 237 242 246 251 250 241 234 231 224 216 219 214 213 212 209 210 210 210 210 210 210 210 210
238 239 238 231 229 229 245 254 253 245 248 250 250 252 254 251 249 252 251 251 248 225 234 240 230 230 224 221 197 200 209 211 211 211 214 216 216 215
240 241 247 241 234 239 228 228 237 241 245 249 254 257 259 257 254 253 251 253 256 243 237 244 233 237 236 217 184 196 204 209 212 214 215 217 217 217
241 241 243 249 244 245 242 241 242 241 240 242 249 254 258 259 250 254 256 253 253 242 232 250 244 243 243 220 189 197 204 208 211 213 214 216 216 218
243 240 240 241 228 232 243 246 248 247 234 228 242 252 264 255 248 253 250 249 252 242 226 246 254 254 247 234 201 196 204 207 209 212 213 214 214 215
239 234 227 227 218 222 239 245 250 253 256 249 242 240 243 237 221 232 245 249 254 253 220 234 248 251 253 240 225 204 208 207 208 211 212 211 208 214
250 241 229 188 206 222 242 246 248 257 259 255 252 247 239 237 232 229 236 244 251 254 237 223 245 243 246 258 249 228 218 215 209 210 210 209 208 214
254 249 224 178 212 231 239 243 247 251 254 256 254 251 248 246 243 239 238 243 251 256 253 234 243 243 249 257 261 236 230 223 216 213 210 200 206 214
254 267 252 215 223 234 227 230 237 246 253 255 256 256 254 250 246 243 242 243 248 250 239 231 238 240 242 252 255 250 243 230 219 219 214 210 211 209
246 240 223 224 229 239 238 232 239 248 253 257 262 264 263 254 245 243 245 246 248 253 237 228 234 236 241 247 252 255 248 239 227 226 223 219 215 215
246 245 245 243 244 246 248 250 251 248 249 253 257 260 263 258 252 246 245 248 249 251 248 230 227 231 235 245 248 248 245 240 226 213 219 226 223 220
234 243 245 244 244 248 249 251 253 255 258 262 262 260 260 262 262 258 248 242 245 248 246 238 218 231 246 248 236 248 247 245 234 214 220 231 234 229
229 240 243 242 246 251 253 254 258 262 265 262 261 261 262 263 264 263 256 250 248 248 245 237 229 232 240 250 237 221 241 245 233 226 229 234 243 237
234 237 236 239 243 254 259 259 264 264 261 265 265 262 258 257 260 263 261 258 256 255 257 249 237 232 238 249 264 259 221 230 236 235 239 242 250 238
240 243 241 240 242 248 257 262 262 262 263 262 264 264 259 258 257 259 263 258 254 254 253 254 251 231 245 247 254 261 249 197 217 240 244 242 243 240
236 239 241 243 244 250 260 263 262 259 259 258 259 258 257 257 253 252 257 259 256 253 253 254 232 230 235 231 240 253 260 245 223 213 225 236 238 238
239 240 241 243 246 251 259 262 265 266 262 260 258 257 259 259 257 253 249 252 253 252 252 250 237 233 237 236 239 244 241 237 235 228 229 206 206 215
Height
1545 1545 1545 1546 1546 1546 1546 1546 1547 1546 1545 1545 1545 1544 1543 1542 1541 1540 1540 1539 1539 1538 1538 1537 1537 1537 1537 1536 1536 1536 1536 1535 1535 1535 1535 1535 1535 1535
1541 1542 1542 1543 1543 1543 1543 1543 1543 1543 1543 1542 1542 1541 1540 1540 1539 1538 1537 1536 1536 1535 1535 1534 1534 1534 1534 1534 1533 1533 1533 1532 1532 1532 1532 1532 1532 1532
1537 1538 1538 1538 1539 1539 1539 1539 1539 1540 1539 1539 1539 1537 1536 1536 1535 1535 1534 1534 1533 1532 1532 1531 1531 1531 1531 1530 1530 1530 1530 1529 1529 1529 1529 1529 1529 1529
1534 1534 1534 1535 1535 1535 1535 1536 1536 1536 1536 1535 1535 1534 1533 1533 1532 1531 1531 1531 1530 1529 1528 1528 1528 1527 1527 1527 1527 1527 1526 1526 1526 1526 1526 1526 1526 1527
1529 1530 1530 1531 1531 1531 1531 1532 1532 1532 1532 1532 1531 1531 1530 1529 1528 1528 1528 1527 1527 1526 1525 1525 1524 1524 1524 1524 1523 1523 1523 1523 1523 1523 1523 1523 1523 1524
1525 1525 1526 1526 1527 1527 1528 1527 1528 1528 1527 1527 1527 1527 1526 1525 1525 1525 1525 1524 1524 1524 1522 1522 1521 1521 1520 1520 1520 1520 1520 1520 1520 1520 1520 1520 1520 1521
1520 1520 1521 1521 1522 1523 1524 1523 1523 1523 1523 1523 1523 1523 1522 1521 1521 1521 1521 1520 1520 1519 1518 1518 1517 1517 1516 1516 1516 1516 1516 1516 1516 1516 1516 1516 1517 1517
1515 1515 1516 1516 1517 1517 1518 1518 1519 1519 1519 1519 1518 1518 1518 1518 1517 1517 1517 1517 1516 1516 1515 1515 1514 1513 1513 1513 1512 1512 1512 1512 1512 1512 1512 1513 1513 1513
1510 1510 1511 1512 1512 1512 1513 1513 1513 1513 1513 1514 1513 1513 1513 1513 1512 1513 1513 1512 1512 1511 1511 1511 1510 1510 1509 1508 1507 1507 1507 1507 1507 1507 1508 1508 1509 1510
1505 1505 1506 1506 1507 1507 1508 1508 1508 1508 1508 1508 1508 1508 1508 1508 1508 1508 1508 1508 1507 1507 1507 1507 1506 1506 1505 1504 1502 1502 1503 1503 1503 1503 1503 1504 1505 1506
1500 1500 1500 1501 1501 1501 1502 1502 1503 1503 1503 1502 1502 1502 1502 1502 1502 1503 1503 1504 1503 1503 1502 1502 1502 1501 1500 1499 1498 1497 1498 1498 1498 1499 1499 1500 1500 1501
1494 1494 1494 1495 1495 1496 1496 1497 1496 1497 1497 1497 1497 1496 1496 1497 1497 1497 1498 1498 1498 1498 1497 1497 1497 1497 1496 1495 1494 1493 1493 1493 1494 1494 1495 1495 1496 1496
1489 1489 1489 1489 1490 1490 1491 1491 1490 1491 1491 1491 1491 1491 1491 1491 1491 1491 1491 1492 1492 1492 1492 1491 1491 1491 1492 1491 1490 1489 1489 1489 1489 1489 1490 1491 1491 1492
1484 1484 1484 1483 1484 1485 1485 1485 1485 1485 1486 1486 1486 1486 1486 1486 1485 1485 1485 1485 1485 1486 1486 1486 1486 1486 1486 1486 1485 1485 1484 1484 1484 1485 1486 1486 1487 1487
1480 1479 1479 1478 1478 1479 1479 1480 1479 1479 1480 1480 1480 1481 1481 1480 1480 1479 1479 1479 1479 1479 1480 1480 1480 1480 1481 1481 1480 1480 1480 1479 1480 1480 1481 1481 1482 1482
1475 1474 1474 1473 1474 1474 1474 1474 1474 1474 1474 1474 1474 1475 1475 1475 1474 1474 1474 1474 1473 1474 1474 1474 1474 1475 1475 1475 1476 1475 1475 1475 1475 1475 1476 1476 1477 1478
1470 1470 1470 1470 1470 1470 1470 1469 1469 1469 1469 1469 1469 1469 1469 1469 1468 1468 1468 1468 1468 1468 1468 1469 1469 1469 1470 1470 1470 1470 1470 1470 1470 1470 1471 1471 1472 1472
1465 1465 1465 1465 1465 1465 1464 1464 1464 1464 1464 1463 1463 1463 1463 1463 1463 1463 1463 1463 1463 1463 1463 1463 1464 1465 1465 1465 1466 1465 1465 1466 1466 1466 1466 1467 1467 1468
1460 1460 1460 1460 1460 1460 1460 1459 1459 1459 1459 1459 1459 1458 1458 1458 1458 1458 1458 1458 1458 1458 1458 1458 1459 1459 1459 1459 1459 1460 1460 1461 1461 1461 1462 1462 1462 1463
1456 1456 1455 1455 1455 1455 1455 1455 1454 1454 1454 1454 1454 1454 1454 1453 1453 1453 1454 1453 1453 1453 1453 1454 1454 1454 1453 1454 1455 1455 1456 1456 1457 1457 1457 1458 1459 1459
1451 1451 1451 1451 1451 1451 1451 1450 1450 1450 1450 1450 1450 1449 1449 1449 1449 1449 1449 1449 1449 1449 1449 1449 1449 1449 1449 1450 1451 1451 1452 1452 1452 1453 1453 1454 1454 1454
1446 1446 1446 1446 1446 1446 1446 1446 1445 1445 1445 1445 1445 1445 1445 1445 1445 1445 1445 1445 1445 1445 1445 1445 1445 1446 1446 1446 1446 1446 1447 1448 1448 1448 1449 1450 1449 1450
1442 1442 1442 1442 1442 1442 1442 1441 1441 1440 1440 1440 1440 1440 1441 1441 1441 1441 1441 1441 1441 1441 1441 1441 1441 1442 1442 1443 1443 1443 1443 1443 1444 1445 1445 1445 1446 1447